Location: Boullarre
(49.1305°N, 3.0047°E)
Time: 23:36:52
(UTC+00:00)

ATLAS CENTAUR R/B - Pass Details

Date: 03 February 2023
Orbit: 450 x 653 km, 64.7° (Epoch: 19 March)

Event Time Altitude Azimuth Distance (km) Brightness Sun altitude
Rises 18:54:49 0° 267° (W) 2,964 6.6 -21.0°
Reaches altitude 10° 18:57:44 10° 285° (WNW) 2,033 5.3 -21.4°
Maximum altitude 19:01:05 19° 332° (NNW) 1,476 3.8 -22.0°
Enters shadow 19:03:30 13° 10° (N) 1,757 3.8 -22.4°
